Location: Tom
(33.0437°N, 96.9452°W)
Time: 21:28:19
(UTC-06:00)

Envisat - Pass Details

Date: 24 January 2019
Orbit: 764 x 766 km, 98.2° (Epoch: 20 February)

Event Time Altitude Azimuth Distance (km) Brightness Sun altitude
Rises 19:29:38 0° 173° (S) 3,216 6.3 -20.4°
Reaches altitude 10° 19:31:56 10° 176° (S) 2,294 5.5 -20.9°
Maximum altitude 19:36:57 66° 259° (WSW) 835 3.3 -21.9°
Drops below altitude 10° 19:42:01 10° 341° (NNW) 2,307 5.6 -23.0°
Sets 19:44:21 0° 345° (NNW) 3,236 6.3 -23.4°
